Regional Weather Roundup
Issued by NWS

Home | Current Version | Previous Version | Graphics & Text | Print | Product List | Glossary On
Versions: 1 2 3 4 5 6 7 8 9 10 11 12 13 14 15 16 17 18 19 20 21 22 23 24 25 26 27 28 29 30 31 32 33 34 35 36 37 38 39 40 41 42 43 44 45 46 47 48 49 50
000
ASUS43 KLSX 282159
RWRMO

WEATHER SUMMARY FOR MISSOURI
NATIONAL WEATHER SERVICE SPRINGFIELD MO
400 PM CST SAT FEB 28 2015

NOTE: "FAIR" INDICATES FEW OR NO CLOUDS BELOW 12,000 FEET WITH NO
       SIGNIFICANT WEATHER AND/OR OBSTRUCTIONS TO VISIBILITY.
       CURRENT SKY AND/OR WEATHER CONDITIONS ARE NOT AVAILABLE FOR
       CHILLICOTHE AND FARMINGTON.

MOZ001>031-035>038-043-044-053-054-282300-
...NORTHERN AND WESTERN MISSOURI...

CITY           SKY/WX    TMP DP  RH WIND       PRES   REMARKS
KANSAS CTY INT LGT SNOW  23  18  81 SE7       30.39F WCI  15
KANSAS C DTWN  LGT SNOW  25  17  72 SE7       30.41F WCI  17
LEE`S SUMMIT   CLOUDY    22  18  85 E6        30.40S WCI  14
ST JOSEPH      LGT SNOW  24  18  77 S9        30.42S WCI  14
CHILLICOTHE      N/A     23  18  81 SE7       30.45F WCI  15
KIRKSVILLE     LGT SNOW  21  19  92 SE8       30.45F VSB 1   WCI  11

$$
MOZ066>068-077>081-088>096-101>105-282300-
...SOUTHWEST MISSOURI...

CITY           SKY/WX    TMP DP  RH WIND       PRES   REMARKS
SPRINGFIELD    SNOW      24  21  88 SE5       30.37S VSB 1/4 WCI  18
JOPLIN         SNOW      25  22  88 SE6       30.38S VSB 1/2 WCI  18

$$
MOZ032>034-039>042-045>050-055>058-069>072-282300-
...CENTRAL MISSOURI...

CITY           SKY/WX    TMP DP  RH WIND       PRES   REMARKS
COLUMBIA       SNOW      23  21  92 E8        30.43F VSB 1/4 WCI  14
JEFFERSON CITY SNOW      24  22  91 E6        30.46F VSB 1/2 WCI  17
ROLLA          SNOW      24  20  84 E7        30.40F VSB 1/2 WCI  16
SEDALIA        SNOW      24  20  84 SE5       30.43S VSB 1/2 WCI  18
OSAGE BEACH    CLOUDY    25  21  86 SE3       30.42S VSB 3/4

$$
MOZ051-052-059>065-282300-
...EAST CENTRAL MISSOURI...

CITY           SKY/WX    TMP DP  RH WIND       PRES   REMARKS
ST LOUIS INTL  SNOW      26  21  81 E6        30.49F VSB 1/2 WCI  19
SPIRIT OF STL  LGT SNOW  25  22  88 E5        30.48F VSB 3/4 WCI  19
ST CHARLES     SNOW      24  21  88 E7        30.50F VSB 1/2 WCI  16

$$
MOZ072>076-082>087-097>100-106>115-282300-
...SOUTH CENTRAL AND SOUTHEAST MISSOURI...

CITY           SKY/WX    TMP DP  RH WIND       PRES   REMARKS
CAPE GIRARDEAU CLOUDY    33  17  51 NE8       30.46F WCI  26
FARMINGTON     CLOUDY    25  23  93 SE6       30.46F VSB 3/4 WCI  18
POPLAR BLUFF   MIX PCPN  29  19  66 NE9       30.44F WCI  20
WEST PLAINS    LGT SNOW  25  20  81 E3        30.40F VSB 1

$$


USA.gov is the U.S. government's official web portal to all federal, state and local government web resources and services.